Flag for Bosnia-Herzegovina Weather past 2 weeks in Mostar, Bosnia-Herzegovina

Now
45 °F

Scattered clouds.


Feels Like: 43 °F
Forecast: 39 / 46 °F
Wind: 3 mph from Southeast

Location: Mostar

Current Time: Jan 31, 2015 at 3:44:30 PM

Latest Report: Jan 31, 2015 at 3:00 PM


Visibility: N/A

Pressure: 29.21 "Hg

Humidity: 81%

Dew point: 39 °F

Location of MostarLocation

Historic Weather in Mostar — Graph

°F

Mostar temperature yesterday

Maximum temperature yesterday: 55 °F (at 1:30 PM)
Minimum temperature yesterday: 43 °F (at 12:00 AM)
Average temperature yesterday: 50 °F

Past Weeks' High & Low Weather Summary

 TemperatureHumidityPressure
High57 °F (Jan 18, 2:00 AM)100% (Jan 17, 2:00 AM)30.21 "Hg (Jan 17, 2:00 AM)
Low25 °F (Jan 29, 7:00 AM)35% (Jan 25, 2:00 PM)28.85 "Hg (Jan 30, 5:00 PM)
Average45 °F77%29.79 "Hg
* Reported Jan 16 2:00 PM — Jan 31 2:30 PM, Mostar, Weather by CustomWeather, © 2014

Note: Actual official high and low records may vary slightly from our data, if they occured in-between our weather recording intervals... More about our weather records

Advertising

Mostar weather history for previous 24 hours

 ConditionsComfort  
Time TempWeatherWind HumidityBarometerVisibility
2:30 PM
Jan 31
45 °FScattered clouds.3 mph81%29.21 "HgN/A
2:00 PM45 °FScattered clouds.3 mph76%29.24 "HgN/A
1:30 PM43 °FBroken clouds.1 mph81%29.24 "HgN/A
1:00 PM43 °FScattered clouds.2 mph81%29.24 "HgN/A
12:30 PM43 °FScattered clouds.3 mph81%29.27 "HgN/A
12:00 PM41 °FScattered clouds.2 mph81%29.27 "HgN/A
11:30 AM39 °FScattered clouds.2 mph87%29.27 "HgN/A
11:00 AM39 °FLight rain. Scattered clouds.3 mph87%29.27 "HgN/A
10:30 AM36 °FLight rain. Broken clouds.3 mph93%29.30 "Hg4 mi
10:00 AM36 °FLight rain. Broken clouds.6 mph93%29.30 "Hg4 mi
9:30 AM36 °FRain. Fog.8 mph87%29.27 "Hg3 mi
9:00 AM36 °FRain. Mostly cloudy.3 mph100%29.27 "Hg4 mi
8:30 AM36 °FLight rain. More clouds than sun.3 mph93%29.27 "HgN/A
8:00 AM36 °FLight rain. More clouds than sun.5 mph100%29.24 "HgN/A
7:30 AM36 °FLight rain. More clouds than sun.7 mph93%29.24 "Hg6 mi
7:00 AM36 °FLight rain. Mostly cloudy.5 mph93%29.27 "Hg4 mi
6:30 AM37 °FRain. Mostly cloudy.6 mph87%29.24 "Hg4 mi
6:00 AM37 °FRain. Mostly cloudy.6 mph93%29.21 "HgN/A
5:30 AM37 °FOvercast.2 mph93%29.21 "HgN/A
4:00 AM39 °FMostly cloudy.3 mph87%29.18 "HgN/A
3:00 AM41 °FMostly cloudy.5 mph81%29.15 "HgN/A
2:00 AM43 °FLight rain. Mostly cloudy.12 mph71%29.09 "HgN/A
1:00 AM43 °FLight rain. Mostly cloudy.9 mph71%29.06 "HgN/A
12:00 AM43 °FLight rain. Partly cloudy.6 mph76%29.06 "HgN/A
11:00 PM
Jan 30
43 °FPassing clouds.13 mph81%29.03 "HgN/A
10:00 PM43 °FMostly cloudy.7 mph81%29.00 "HgN/A
9:00 PM45 °FThunderstorms. Mostly cloudy.13 mph81%28.91 "Hg6 mi
8:00 PM52 °FLight rain. Overcast.15 mph67%28.85 "HgN/A
6:00 PM50 °FLight rain. Overcast.8 mph88%28.85 "HgN/A
5:00 PM52 °FRain. Overcast.16 mph82%28.85 "HgN/A
3:30 PM55 °FMore clouds than sun.21 mph67%28.91 "HgN/A
3:00 PM55 °FLight rain. More clouds than sun.14 mph72%28.91 "HgN/A
Weather by CustomWeather, © 2014

See weather overviewHow to use our weather pages